This is the latest recevied weather packets stored in our database for station/object KN6CW-3. If no packets are shown the sender has not sent any weather packets the latest 10 day(s).
| Time | Temp. | Humidity | Pressure | Rain* | Wind** | Luminosity | Snow |
|---|---|---|---|---|---|---|---|
| 1778000660 | 22.78° C | 49% | 1008.3 hPa | 0 mm | - | 977 W/m² | - |
| 1778000059 | 22.78° C | 48% | 1008.6 hPa | 0 mm | - | 921 W/m² | - |
| 1777999759 | 22.78° C | 49% | 1008.6 hPa | 0 mm | - | 960 W/m² | - |
| 1777999459 | 23.33° C | 49% | 1008.6 hPa | 0 mm | - | 947 W/m² | - |
| 1777999158 | 22.78° C | 51% | 1008.7 hPa | 0 mm | - | 946 W/m² | - |
| 1777998858 | 22.78° C | 51% | 1008.8 hPa | 0 mm | - | 981 W/m² | - |
| 1777998558 | 23.33° C | 51% | 1008.9 hPa | 0 mm | - | 988 W/m² | - |
| 1777998258 | 22.78° C | 52% | 1008.9 hPa | 0 mm | - | 921 W/m² | - |
| 1777997957 | 22.22° C | 52% | 1009.1 hPa | 0 mm | - | 926 W/m² | - |
| 1777997657 | 22.22° C | 52% | 1009 hPa | 0 mm | - | 912 W/m² | - |
| 1777997357 | 21.67° C | 54% | 1009.1 hPa | 0 mm | - | 907 W/m² | - |
| 1777997057 | 21.67° C | 52% | 1009.1 hPa | 0 mm | - | 895 W/m² | - |
| 1777996756 | 21.67° C | 54% | 1009.1 hPa | 0 mm | - | 900 W/m² | - |
| 1777996456 | 21.67° C | 55% | 1009.2 hPa | 0 mm | - | 889 W/m² | - |
| 1777996156 | 21.67° C | 54% | 1009.2 hPa | 0 mm | - | 886 W/m² | - |
| 1777995855 | 21.11° C | 56% | 1009.5 hPa | 0 mm | - | 877 W/m² | - |
| 1777995555 | 21.11° C | 55% | 1009.4 hPa | 0 mm | - | 861 W/m² | - |
| 1777995255 | 21.11° C | 55% | 1009.5 hPa | 0 mm | - | 867 W/m² | - |
| 1777994955 | 20.56° C | 57% | 1009.5 hPa | 0 mm | - | 853 W/m² | - |
| 1777994354 | 20.56° C | 59% | 1009.5 hPa | 0 mm | - | 828 W/m² | - |
| 1777994054 | 20.56° C | 60% | 1009.7 hPa | 0 mm | - | 830 W/m² | - |
| 1777993753 | 20° C | 60% | 1009.7 hPa | 0 mm | - | 823 W/m² | - |
| 1777993453 | 20° C | 60% | 1009.8 hPa | 0 mm | - | 793 W/m² | - |
| 1777993153 | 19.44° C | 60% | 1010 hPa | 0 mm | - | 796 W/m² | - |
| 1777992852 | 19.44° C | 61% | 1009.9 hPa | 0 mm | - | 798 W/m² | - |
* Rain latest hour (hover to see other rain measurements)
** Current wind speed in m/s (hover to see current wind gust speed)